| time (UTC) | temp F | wind direction | speed knots | gust knots | rain 1hr in | rain 24hr in | rain mn in | humidity % | barometer mb |
| 20260508063516 | 57 | 297 | 5.2 | 10.4 | 0.00 | 0.00 | 0.00 | 69 | 1018.8 |
| 20260508062526 | 58 | 298 | 6.1 | 12.2 | 0.00 | 0.00 | 0.00 | 66 | 1018.5 |
| 20260508061536 | 58 | 288 | 6.1 | 12.2 | 0.00 | 0.00 | 0.00 | 66 | 1018.4 |
| 20260508060525 | 58 | 278 | 7.8 | 13.9 | 0.00 | 0.00 | 0.00 | 66 | 1018.2 |
| 20260508055533 | 58 | 270 | 7.0 | 13.9 | 0.00 | 0.00 | 0.00 | 65 | 1018.1 |
| 20260508054523 | 58 | 268 | 7.8 | 16.5 | 0.00 | 0.00 | 0.00 | 64 | 1018.1 |
| 20260508053533 | 58 | 267 | 7.8 | 14.8 | 0.00 | 0.00 | 0.00 | 63 | 1018.0 |
| 20260508052527 | 59 | 278 | 7.0 | 14.8 | 0.00 | 0.00 | 0.00 | 63 | 1018.0 |
| 20260508051538 | 58 | 276 | 6.1 | 13.0 | 0.00 | 0.00 | 0.00 | 63 | 1017.9 |
| 20260508050521 | 58 | 273 | 8.7 | 14.8 | 0.00 | 0.00 | 0.00 | 63 | 1017.9 |
| 20260508045528 | 58 | 269 | 7.8 | 14.8 | 0.00 | 0.00 | 0.00 | 63 | 1017.9 |
| 20260508044518 | 59 | 283 | 8.7 | 19.1 | 0.00 | 0.00 | 0.00 | 63 | 1017.8 |
| 20260508043535 | 58 | 276 | 7.8 | 14.8 | 0.00 | 0.00 | 0.00 | 63 | 1017.6 |
| 20260508042543 | 58 | 281 | 9.6 | 17.4 | 0.00 | 0.00 | 0.00 | 62 | 1017.7 |
| 20260508041525 | 59 | 286 | 8.7 | 16.5 | 0.00 | 0.00 | 0.00 | 62 | 1017.5 |
| 20260508040535 | 58 | 269 | 7.8 | 18.2 | 0.00 | 0.00 | 0.00 | 63 | 1017.4 |
| 20260508035525 | 58 | 274 | 8.7 | 18.2 | 0.00 | 0.00 | 0.00 | 64 | 1017.2 |
| 20260508034533 | 57 | 270 | 8.7 | 18.2 | 0.00 | 0.00 | 0.00 | 65 | 1017.2 |
| 20260508033522 | 58 | 274 | 8.7 | 16.5 | 0.00 | 0.00 | 0.00 | 64 | 1017.1 |
| 20260508032539 | 57 | 270 | 10.4 | 19.1 | 0.00 | 0.00 | 0.00 | 66 | 1017.3 |
| 20260508031522 | 57 | 291 | 10.4 | 19.1 | 0.00 | 0.00 | 0.00 | 65 | 1017.3 |
| 20260508030531 | 57 | 290 | 8.7 | 18.2 | 0.00 | 0.00 | 0.00 | 65 | 1017.6 |
| 20260508025520 | 58 | 313 | 8.7 | 16.5 | 0.00 | 0.00 | 0.00 | 65 | 1017.7 |
| 20260508024528 | 57 | 298 | 8.7 | 19.1 | 0.00 | 0.00 | 0.00 | 66 | 1017.8 |
| 20260508023517 | 57 | 298 | 7.8 | 14.8 | 0.00 | 0.00 | 0.00 | 67 | 1017.7 |
| 20260508022526 | 57 | 294 | 8.7 | 17.4 | 0.00 | 0.00 | 0.00 | 67 | 1017.7 |
| 20260508021536 | 56 | 289 | 10.4 | 20.0 | 0.00 | 0.00 | 0.00 | 69 | 1017.8 |
| 20260508020525 | 55 | 288 | 13.0 | 19.1 | 0.00 | 0.00 | 0.00 | 69 | 1017.9 |
| 20260508015542 | 55 | 297 | 12.2 | 20.9 | 0.00 | 0.00 | 0.00 | 71 | 1017.9 |
| 20260508014524 | 55 | 292 | 13.0 | 23.5 | 0.00 | 0.00 | 0.00 | 70 | 1018.0 |
| 20260508013532 | 54 | 291 | 12.2 | 24.3 | 0.00 | 0.00 | 0.00 | 72 | 1018.2 |
| 20260508012521 | 54 | 299 | 13.0 | 19.1 | 0.00 | 0.00 | 0.00 | 72 | 1018.4 |
| 20260508011531 | 54 | 303 | 11.3 | 18.2 | 0.00 | 0.00 | 0.00 | 73 | 1018.6 |
| 20260508010520 | 53 | 304 | 10.4 | 19.1 | 0.00 | 0.00 | 0.00 | 75 | 1018.7 |
| 20260508005530 | 53 | 299 | 10.4 | 20.0 | 0.00 | 0.00 | 0.00 | 75 | 1018.7 |
| 20260508004519 | 53 | 304 | 10.4 | 19.1 | 0.00 | 0.00 | 0.00 | 76 | 1018.7 |
| 20260508003528 | 52 | 298 | 11.3 | 18.2 | 0.00 | 0.00 | 0.00 | 77 | 1018.8 |
| 20260508002525 | 52 | 308 | 12.2 | 20.9 | 0.00 | 0.00 | 0.00 | 78 | 1018.6 |
| 20260508001527 | 51 | 309 | 11.3 | 19.1 | 0.00 | 0.00 | 0.00 | 78 | 1018.8 |
| 20260508000536 | 50 | 318 | 9.6 | 17.4 | 0.00 | 0.00 | 0.00 | 79 | 1019.0 |
| 20260507235525 | 51 | 327 | 10.4 | 19.1 | 0.00 | 0.00 | 0.00 | 79 | 1019.2 |
| 20260507234535 | 51 | 329 | 10.4 | 18.2 | 0.00 | 0.00 | 0.00 | 78 | 1019.2 |
| 20260507233530 | 50 | 334 | 9.6 | 16.5 | 0.00 | 0.00 | 0.00 | 79 | 1019.0 |
| 20260507232531 | 51 | 346 | 7.0 | 14.8 | 0.00 | 0.00 | 0.00 | 78 | 1019.0 |
| 20260507231521 | 51 | 344 | 7.8 | 17.4 | 0.00 | 0.00 | 0.00 | 78 | 1019.0 |
| 20260507230530 | 51 | 352 | 6.1 | 12.2 | 0.00 | 0.00 | 0.00 | 77 | 1018.9 |
| 20260507225519 | 52 | 343 | 6.1 | 12.2 | 0.00 | 0.00 | 0.00 | 75 | 1018.8 |
| 20260507224529 | 51 | 326 | 6.1 | 9.6 | 0.00 | 0.00 | 0.00 | 75 | 1018.6 |
| 20260507223532 | 51 | 326 | 7.0 | 12.2 | 0.00 | 0.00 | 0.00 | 75 | 1018.4 |
| 20260507222526 | 51 | 339 | 6.1 | 10.4 | 0.00 | 0.00 | 0.00 | 76 | 1018.4 |
| 20260507221535 | 51 | 9 | 4.3 | 7.8 | 0.00 | 0.00 | 0.00 | 78 | 1018.0 |
| 20260507220533 | 50 | 15 | 6.1 | 12.2 | 0.00 | 0.00 | 0.00 | 79 | 1018.0 |
| 20260507215534 | 49 | 18 | 5.2 | 11.3 | 0.00 | 0.00 | 0.00 | 81 | 1017.8 |
| 20260507214523 | 48 | 23 | 6.1 | 13.9 | 0.00 | 0.00 | 0.00 | 85 | 1017.7 |
| 20260507213533 | 47 | 14 | 6.1 | 14.8 | 0.00 | 0.00 | 0.00 | 86 | 1017.7 |
| 20260507212522 | 47 | 24 | 7.0 | 11.3 | 0.00 | 0.00 | 0.00 | 86 | 1017.8 |
| 20260507211531 | 47 | 22 | 6.1 | 13.9 | 0.00 | 0.00 | 0.00 | 86 | 1017.8 |
| 20260507210527 | 47 | 24 | 6.1 | 13.0 | 0.00 | 0.00 | 0.00 | 86 | 1017.8 |
| 20260507205533 | 47 | 3 | 5.2 | 9.6 | 0.00 | 0.00 | 0.00 | 86 | 1017.6 |
| 20260507204519 | 47 | 4 | 6.1 | 11.3 | 0.00 | 0.00 | 0.00 | 85 | 1017.8 |
| 20260507203528 | 47 | 15 | 6.1 | 11.3 | 0.00 | 0.00 | 0.00 | 86 | 1017.8 |
| 20260507202516 | 47 | 10 | 5.2 | 9.6 | 0.00 | 0.00 | 0.00 | 85 | 1017.8 |
| 20260507201526 | 46 | 359 | 4.3 | 7.8 | 0.00 | 0.00 | 0.00 | 86 | 1017.6 |
| 20260507200536 | 46 | 349 | 6.1 | 12.2 | 0.00 | 0.00 | 0.00 | 85 | 1017.5 |
| 20260507195525 | 47 | 346 | 7.0 | 13.9 | 0.00 | 0.00 | 0.00 | 84 | 1017.4 |
| 20260507194535 | 47 | 335 | 7.8 | 11.3 | 0.00 | 0.00 | 0.00 | 83 | 1017.5 |
| 20260507193523 | 47 | 329 | 8.7 | 13.9 | 0.00 | 0.00 | 0.00 | 82 | 1017.5 |
| 20260507192540 | 47 | 311 | 8.7 | 13.9 | 0.00 | 0.00 | 0.00 | 80 | 1017.5 |
| 20260507191522 | 47 | 297 | 7.8 | 12.2 | 0.00 | 0.00 | 0.00 | 80 | 1017.3 |
| 20260507190531 | 48 | 289 | 7.8 | 13.9 | 0.00 | 0.00 | 0.00 | 77 | 1017.4 |
| 20260507185528 | 49 | 289 | 7.0 | 13.0 | 0.00 | 0.00 | 0.00 | 75 | 1017.3 |
| 20260507184530 | 49 | 276 | 6.1 | 10.4 | 0.00 | 0.00 | 0.00 | 75 | 1017.3 |
| 20260507183518 | 49 | 273 | 6.1 | 12.2 | 0.00 | 0.00 | 0.00 | 75 | 1017.2 |
| 20260507182528 | 49 | 290 | 7.0 | 12.2 | 0.00 | 0.00 | 0.00 | 74 | 1017.3 |
| 20260507181517 | 48 | 302 | 6.1 | 12.2 | 0.00 | 0.00 | 0.00 | 76 | 1017.4 |
| 20260507180526 | 47 | 326 | 3.5 | 6.1 | 0.00 | 0.00 | 0.00 | 80 | 1017.2 |
| 20260507175550 | 47 | 0 | 4.3 | 9.6 | 0.00 | 0.00 | 0.00 | 80 | 1017.2 |
| 20260507174524 | 48 | 349 | 3.5 | 5.2 | 0.00 | 0.00 | 0.00 | 78 | 1017.6 |
| 20260507173534 | 48 | 349 | 4.3 | 6.1 | 0.00 | 0.00 | 0.00 | 76 | 1017.5 |
| 20260507172530 | 48 | 332 | 5.2 | 9.6 | 0.00 | 0.00 | 0.00 | 75 | 1017.4 |
| 20260507171532 | 48 | 336 | 4.3 | 7.8 | 0.00 | 0.00 | 0.00 | 74 | 1017.6 |
| 20260507170527 | 48 | 344 | 4.3 | 6.1 | 0.00 | 0.00 | 0.00 | 73 | 1017.5 |
| 20260507165530 | 48 | 327 | 4.3 | 8.7 | 0.00 | 0.00 | 0.00 | 72 | 1017.6 |
| 20260507164519 | 48 | 306 | 4.3 | 8.7 | 0.00 | 0.00 | 0.00 | 71 | 1017.7 |
| 20260507163528 | 48 | 323 | 4.3 | 9.6 | 0.00 | 0.00 | 0.00 | 71 | 1017.7 |
| 20260507162518 | 48 | 304 | 7.0 | 11.3 | 0.00 | 0.00 | 0.00 | 71 | 1017.9 |
| 20260507161528 | 47 | 295 | 7.8 | 13.9 | 0.00 | 0.00 | 0.00 | 70 | 1017.6 |
| 20260507160516 | 48 | 305 | 6.1 | 12.2 | 0.00 | 0.00 | 0.00 | 68 | 1017.8 |
| 20260507155525 | 47 | 300 | 5.2 | 9.6 | 0.00 | 0.00 | 0.00 | 71 | 1017.7 |
| 20260507154535 | 46 | 8 | 4.3 | 7.8 | 0.00 | 0.00 | 0.00 | 72 | 1017.7 |
| 20260507153524 | 47 | 18 | 2.6 | 4.3 | 0.00 | 0.00 | 0.00 | 69 | 1017.9 |
| 20260507152534 | 48 | 305 | 4.3 | 7.8 | 0.00 | 0.00 | 0.00 | 68 | 1017.9 |
| 20260507151522 | 48 | 288 | 3.5 | 9.6 | 0.00 | 0.00 | 0.00 | 68 | 1018.1 |
| 20260507150533 | 48 | 280 | 5.2 | 11.3 | 0.00 | 0.00 | 0.00 | 69 | 1018.1 |
| 20260507145521 | 47 | 299 | 3.5 | 7.0 | 0.00 | 0.00 | 0.00 | 69 | 1018.2 |
| 20260507144530 | 47 | 327 | 4.3 | 8.7 | 0.00 | 0.00 | 0.00 | 70 | 1018.0 |
| 20260507143519 | 47 | 285 | 4.3 | 7.8 | 0.00 | 0.00 | 0.00 | 70 | 1017.9 |
| 20260507142528 | 47 | 285 | 1.7 | 3.5 | 0.00 | 0.00 | 0.00 | 71 | 1018.3 |
| 20260507141517 | 47 | 351 | 3.5 | 7.0 | 0.00 | 0.00 | 0.00 | 70 | 1018.2 |
| 20260507140527 | 47 | 20 | 1.7 | 3.5 | 0.00 | 0.00 | 0.00 | 70 | 1018.5 |
| 20260507135536 | 47 | 321 | 3.5 | 6.1 | 0.00 | 0.00 | 0.00 | 69 | 1018.7 |
| 20260507134526 | 47 | 333 | 5.2 | 10.4 | 0.00 | 0.00 | 0.00 | 70 | 1018.9 |
| 20260507133541 | 46 | 325 | 3.5 | 7.8 | 0.00 | 0.00 | 0.00 | 71 | 1018.9 |
| 20260507132524 | 45 | 360 | 3.5 | 4.3 | 0.00 | 0.00 | 0.00 | 72 | 1018.9 |
| 20260507131534 | 45 | 7 | 2.6 | 5.2 | 0.00 | 0.00 | 0.00 | 71 | 1019.0 |
| 20260507130522 | 45 | 11 | 2.6 | 7.8 | 0.00 | 0.00 | 0.00 | 70 | 1019.1 |
| 20260507125531 | 45 | 3 | 3.5 | 5.2 | 0.00 | 0.00 | 0.00 | 69 | 1019.2 |
| 20260507124527 | 45 | 4 | 2.6 | 5.2 | 0.00 | 0.00 | 0.00 | 68 | 1019.4 |
| 20260507123530 | 46 | 332 | 3.5 | 5.2 | 0.00 | 0.00 | 0.00 | 67 | 1019.4 |
| 20260507122519 | 46 | 277 | 2.6 | 6.1 | 0.00 | 0.00 | 0.00 | 67 | 1019.6 |
| 20260507121528 | 45 | 312 | 2.6 | 5.2 | 0.00 | 0.00 | 0.00 | 68 | 1019.6 |
| 20260507120518 | 45 | 321 | 3.5 | 7.0 | 0.00 | 0.00 | 0.00 | 69 | 1019.6 |
| 20260507115527 | 46 | 336 | 3.5 | 6.1 | 0.00 | 0.00 | 0.00 | 67 | 1019.8 |
| 20260507114537 | 46 | 300 | 4.3 | 7.0 | 0.00 | 0.00 | 0.00 | 65 | 1019.6 |
| 20260507113525 | 46 | 274 | 3.5 | 7.8 | 0.00 | 0.00 | 0.00 | 65 | 1019.6 |
| 20260507112534 | 46 | 294 | 5.2 | 9.6 | 0.00 | 0.00 | 0.00 | 66 | 1019.8 |
| 20260507111524 | 46 | 305 | 4.3 | 7.8 | 0.00 | 0.00 | 0.00 | 67 | 1019.6 |
| 20260507110532 | 46 | 315 | 4.3 | 7.8 | 0.00 | 0.00 | 0.00 | 67 | 1019.7 |
| 20260507105522 | 46 | 308 | 3.5 | 7.0 | 0.00 | 0.00 | 0.00 | 67 | 1019.7 |
| 20260507104531 | 46 | 308 | 4.3 | 7.0 | 0.00 | 0.00 | 0.00 | 65 | 1019.5 |
| 20260507103528 | 46 | 313 | 4.3 | 8.7 | 0.00 | 0.00 | 0.00 | 67 | 1019.4 |
| 20260507102529 | 46 | 332 | 5.2 | 9.6 | 0.00 | 0.00 | 0.00 | 67 | 1019.4 |
| 20260507101518 | 47 | 336 | 4.3 | 7.0 | 0.00 | 0.00 | 0.00 | 66 | 1019.2 |
| 20260507100528 | 47 | 318 | 3.5 | 7.0 | 0.00 | 0.00 | 0.00 | 65 | 1019.2 |
| 20260507095531 | 47 | 308 | 3.5 | 7.8 | 0.00 | 0.00 | 0.00 | 64 | 1019.1 |
| 20260507094533 | 47 | 291 | 3.5 | 8.7 | 0.00 | 0.00 | 0.00 | 64 | 1019.1 |
| 20260507093535 | 47 | 298 | 4.3 | 9.6 | 0.00 | 0.00 | 0.00 | 64 | 1018.8 |
| 20260507092532 | 47 | 281 | 3.5 | 7.8 | 0.00 | 0.00 | 0.00 | 65 | 1018.9 |
| 20260507091533 | 47 | 270 | 2.6 | 6.1 | 0.00 | 0.00 | 0.00 | 65 | 1018.7 |
| 20260507090529 | 46 | 284 | 3.5 | 7.8 | 0.00 | 0.00 | 0.00 | 66 | 1018.6 |
| 20260507085531 | 47 | 284 | 3.5 | 7.8 | 0.00 | 0.00 | 0.00 | 66 | 1018.5 |
| 20260507084520 | 46 | 287 | 2.6 | 7.0 | 0.00 | 0.00 | 0.00 | 67 | 1018.6 |
| 20260507083529 | 47 | 269 | 0.9 | 2.6 | 0.00 | 0.00 | 0.00 | 66 | 1018.6 |
| 20260507082518 | 48 | 280 | 2.6 | 6.1 | 0.00 | 0.00 | 0.00 | 64 | 1018.5 |
| 20260507081527 | 48 | 281 | 4.3 | 9.6 | 0.00 | 0.00 | 0.00 | 62 | 1018.4 |
| 20260507080531 | 48 | 277 | 2.6 | 7.0 | 0.00 | 0.00 | 0.00 | 63 | 1018.2 |
| 20260507075526 | 48 | 282 | 3.5 | 6.1 | 0.00 | 0.00 | 0.00 | 63 | 1017.8 |
| 20260507074535 | 48 | 285 | 3.5 | 8.7 | 0.00 | 0.00 | 0.00 | 62 | 1017.7 |
| 20260507073524 | 48 | 279 | 3.5 | 7.8 | 0.00 | 0.00 | 0.00 | 62 | 1017.4 |
| 20260507072535 | 48 | 254 | 4.3 | 10.4 | 0.00 | 0.00 | 0.00 | 62 | 1017.4 |
| 20260507071523 | 48 | 262 | 3.5 | 8.7 | 0.00 | 0.00 | 0.00 | 62 | 1017.3 |
| 20260507070532 | 49 | 272 | 4.3 | 8.7 | 0.00 | 0.00 | 0.00 | 61 | 1017.2 |
| 20260507065521 | 50 | 272 | 4.3 | 10.4 | 0.00 | 0.00 | 0.00 | 59 | 1017.1 |
| 20260507064533 | 50 | 266 | 6.1 | 13.0 | 0.00 | 0.00 | 0.00 | 57 | 1016.9 |